Location: Granada
(37.1830°N, 3.6000°W)
Time: 12:19:02
(UTC+02:00)

Iridium 70 - Visible Passes

Search period start: 23 May 2015 00:00
Search period end: 02 June 2015 00:00
Orbit: 776 x 779 km, 86.4° (Epoch: 22 May)

Date Brightness Start Highest point End Pass type
(mag) Time Alt. Az. Time Alt. Az. Time Alt. Az.
23 May 5.8 21:51:20 10° SSE 21:56:21 51° E 22:01:24 10° NNE visible
23 May 8.2 23:34:14 10° WSW 23:37:30 16° WNW 23:40:32 10° NW visible
24 May 7.4 22:59:04 10° SW 23:03:38 30° W 23:08:08 10° NNW visible
25 May 6.2 22:24:50 10° SSW 22:29:57 56° W 22:35:05 10° N visible
26 May 5.5 21:51:13 10° S 21:56:24 77° E 22:01:38 10° N visible
26 May 8.6 23:36:44 10° W 23:37:54 10° WNW 23:38:41 10° WNW visible
27 May 8.0 23:00:01 10° SW 23:03:55 20° WNW 23:07:41 10° NNW visible
28 May 7.0 22:25:18 10° SSW 22:30:08 38° W 22:34:57 10° NNW visible
29 May 5.9 21:51:19 10° S 21:56:30 73° W 22:01:44 10° N visible
30 May 8.4 23:01:29 10° WSW 23:04:17 14° WNW 23:06:47 10° NW visible
31 May 7.8 22:26:01 10° SW 22:30:22 26° W 22:34:40 10° NNW visible
01 Jun 6.6 21:51:37 10° SSW 21:56:39 49° W 22:01:41 10° N visible
